DeKalb, IL

10:59 PM CDT on June 25, 2017 (GMT -0500)
De Kalb Taylor Municipal

Weather History for KDKB - June, 2013

Change the Weather History Date:

Thursday, June 13, 2013

  Actual Average (KARR) Record (KARR)
Temperature  
Mean Temperature 69 °F -  
Max Temperature 78 °F 76 °F 93 °F (2001)
Min Temperature 60 °F 55 °F 46 °F (2006)
Cooling Degree Days 4    
Growing Degree Days 19 (Base 50)    
Moisture  
Dew Point 59 °F    
Average Humidity 71    
Maximum Humidity 91    
Minimum Humidity 46    
Precipitation  
Precipitation 0.00 in - - ()
Sea Level Pressure  
Sea Level Pressure 29.93 in    
Wind  
Wind Speed 10 mph (North)    
Max Wind Speed 16 mph    
Max Gust Speed 22 mph    
Visibility 10 miles    
Events      
Averages and records for this station are not official NWS values.
T = Trace of Precipitation, MM = Missing Value Source: NWS Daily Summary

Daily Weather History Graph

Daily Weather History Graph

Search for Another Location

Airport or City:

Trip Planner

Search our weather history database for the weather conditions in past years. The results will help you decide how hot, cold, wet, or windy it might be!

Date:

Astronomy

Jun. 13, 2013 Rise Set
Actual Time 5:18 AM CDT 8:31 PM CDT
Civil Twilight 4:44 AM CDT 9:05 PM CDT
Nautical Twilight 4:00 AM CDT 9:49 PM CDT
Astronomical Twilight 3:07 AM CDT 10:42 PM CDT
Moon 9:59 AM CDT (6/13) 11:33 PM CDT (6/13)
Length of Visible Light 16h 20m
Length of Day
15h 12m
Waxing Crescent, 22% of the Moon is Illuminated
Jun 13
Waxing Crescent
Jun 16
First Quarter
Jun 23
Full
Jun 29
Last Quarter
Jul 8
New

Hourly Weather History & Observations

Time (CDT) Temp. Dew Point Humidity Pressure Visibility Wind Dir Wind Speed Gust Speed Precip Events Conditions
12:35 AM 64.9 °F 62.1 °F 90% 29.68 in 7.0 mi East 6.9 mph - N/A   Clear
12:55 AM 64.9 °F 62.1 °F 90% 29.70 in 7.0 mi ENE 4.6 mph - N/A   Scattered Clouds
1:15 AM 64.9 °F 62.1 °F 90% 29.71 in 5.0 mi North 10.4 mph - N/A   Scattered Clouds
1:35 AM 64.9 °F 62.2 °F 91% 29.71 in 7.0 mi North 12.7 mph 17.3 mph N/A   Mostly Cloudy
1:55 AM 64.9 °F 62.1 °F 90% 29.72 in 10.0 mi North 10.4 mph - N/A   Overcast
2:15 AM 64.9 °F 62.1 °F 90% 29.75 in 10.0 mi North 9.2 mph - N/A   Overcast
2:35 AM 64.9 °F 62.1 °F 90% 29.77 in 10.0 mi NNW 6.9 mph - N/A   Overcast
2:55 AM 64.9 °F 62.1 °F 90% 29.77 in 10.0 mi NNW 9.2 mph - N/A   Overcast
3:15 AM 64.9 °F 62.2 °F 91% 29.78 in 10.0 mi NNW 10.4 mph - N/A   Overcast
3:35 AM 65.3 °F 62.6 °F 91% 29.78 in 10.0 mi North 11.5 mph - N/A   Overcast
3:55 AM 65.3 °F 62.6 °F 91% 29.79 in 7.0 mi NNW 11.5 mph - N/A   Overcast
4:15 AM 65.1 °F 62.2 °F 90% 29.80 in 10.0 mi North 15.0 mph 21.9 mph N/A   Overcast
4:35 AM 64.4 °F 61.5 °F 90% 29.81 in 10.0 mi North 12.7 mph 19.6 mph N/A   Overcast
4:55 AM 63.7 °F 60.4 °F 89% 29.80 in 10.0 mi North 12.7 mph 17.3 mph N/A   Overcast
5:15 AM 63.3 °F 59.4 °F 87% 29.82 in 10.0 mi North 11.5 mph - N/A   Overcast
5:55 AM 61.9 °F 57.4 °F 85% 29.84 in 10.0 mi NNW 11.5 mph - N/A   Clear
6:15 AM 61.7 °F 56.8 °F 84% 29.85 in 10.0 mi NNW 12.7 mph 17.3 mph N/A   Clear
6:35 AM 62.2 °F 57.4 °F 84% 29.86 in 10.0 mi NNW 11.5 mph - N/A   Clear
6:55 AM 63.0 °F 57.7 °F 83% 29.87 in 10.0 mi North 10.4 mph 17.3 mph N/A   Clear
7:15 AM 64.0 °F 57.9 °F 80% 29.88 in 10.0 mi North 12.7 mph 17.3 mph N/A   Clear
7:35 AM 64.9 °F 57.9 °F 78% 29.90 in 10.0 mi North 13.8 mph - N/A   Clear
7:55 AM 66.2 °F 57.4 °F 73% 29.89 in 10.0 mi NNE 13.8 mph 17.3 mph N/A   Clear
8:15 AM 66.9 °F 56.3 °F 69% 29.91 in 10.0 mi North 16.1 mph 21.9 mph N/A   Clear
8:35 AM 67.6 °F 56.3 °F 67% 29.92 in 10.0 mi North 13.8 mph 19.6 mph N/A   Clear
8:55 AM 68.2 °F 56.3 °F 66% 29.93 in 10.0 mi North 15.0 mph 20.7 mph N/A   Clear
9:15 AM 69.3 °F 57.4 °F 66% 29.93 in 10.0 mi NNE 13.8 mph - N/A   Clear
9:35 AM 70.0 °F 57.6 °F 65% 29.94 in 10.0 mi NNE 11.5 mph - N/A   Clear
9:55 AM 70.7 °F 58.1 °F 64% 29.94 in 10.0 mi NNE 13.8 mph - N/A   Clear
10:15 AM 71.6 °F 57.7 °F 62% 29.96 in 10.0 mi North 15.0 mph - N/A   Clear
10:35 AM 72.1 °F 58.3 °F 62% 29.96 in 10.0 mi North 10.4 mph 20.7 mph N/A   Clear
11:15 AM 73.0 °F 57.0 °F 57% 29.98 in 10.0 mi North 11.5 mph 20.7 mph N/A   Clear
11:35 AM 74.1 °F 58.6 °F 58% 29.98 in 10.0 mi North 8.1 mph - N/A   Clear
12:15 PM 75.0 °F 59.9 °F 59% 29.99 in 10.0 mi NNW 9.2 mph - N/A   Clear
12:35 PM 75.7 °F 59.7 °F 57% 29.99 in 10.0 mi NNW 15.0 mph - N/A   Clear
12:55 PM 75.7 °F 60.1 °F 58% 29.99 in 10.0 mi North 11.5 mph - N/A   Clear
1:15 PM 75.7 °F 58.3 °F 55% 29.99 in 10.0 mi North 10.4 mph - N/A   Clear
1:35 PM 75.9 °F 59.4 °F 56% 29.99 in 10.0 mi NNW 11.5 mph - N/A   Scattered Clouds
1:55 PM 75.7 °F 58.1 °F 54% 30.00 in 10.0 mi NNW 12.7 mph 16.1 mph N/A   Scattered Clouds
2:15 PM 76.5 °F 57.7 °F 52% 29.99 in 10.0 mi NW 10.4 mph 17.3 mph N/A   Scattered Clouds
2:35 PM 76.1 °F 59.2 °F 56% 29.99 in 10.0 mi NNW 9.2 mph - N/A   Scattered Clouds
2:55 PM 75.9 °F 57.0 °F 52% 30.00 in 10.0 mi North 13.8 mph 20.7 mph N/A   Mostly Cloudy
3:35 PM 76.8 °F 56.1 °F 49% 30.00 in 10.0 mi NNW 11.5 mph 18.4 mph N/A   Clear
3:55 PM 78.3 °F 55.9 °F 46% 30.00 in 10.0 mi North 10.4 mph - N/A   Scattered Clouds
4:15 PM 78.3 °F 57.0 °F 48% 29.99 in 10.0 mi North 12.7 mph 19.6 mph N/A   Mostly Cloudy
4:35 PM 78.3 °F 58.3 °F 50% 29.99 in 10.0 mi North 10.4 mph 16.1 mph N/A   Mostly Cloudy
4:55 PM 75.7 °F 54.7 °F 48% 29.99 in 10.0 mi NNW 10.4 mph 17.3 mph N/A   Scattered Clouds
5:15 PM 76.1 °F 55.9 °F 50% 29.99 in 10.0 mi NNW 9.2 mph - N/A   Scattered Clouds
5:35 PM 77.0 °F 56.8 °F 50% 29.99 in 10.0 mi North 10.4 mph 17.3 mph N/A   Scattered Clouds
5:55 PM 77.2 °F 57.7 °F 51% 29.99 in 10.0 mi North 12.7 mph 18.4 mph N/A   Scattered Clouds
6:15 PM 77.0 °F 57.4 °F 51% 29.99 in 10.0 mi North 9.2 mph - N/A   Scattered Clouds
6:35 PM 75.7 °F 59.9 °F 58% 29.99 in 10.0 mi East 8.1 mph - N/A   Mostly Cloudy
6:55 PM 73.9 °F 60.1 °F 62% 30.00 in 10.0 mi East 8.1 mph - N/A   Scattered Clouds
7:15 PM 73.0 °F 60.4 °F 65% 30.02 in 10.0 mi East 6.9 mph - N/A   Scattered Clouds
7:35 PM 72.1 °F 59.9 °F 65% 30.03 in 10.0 mi East 9.2 mph - N/A   Scattered Clouds
7:55 PM 71.6 °F 59.9 °F 66% 30.03 in 10.0 mi East 6.9 mph - N/A   Scattered Clouds
8:15 PM 70.7 °F 59.9 °F 69% 30.03 in 10.0 mi East 10.4 mph - N/A   Mostly Cloudy
8:55 PM 66.2 °F 58.5 °F 76% 30.05 in 10.0 mi East 4.6 mph - N/A   Scattered Clouds
9:15 PM 65.3 °F 58.1 °F 77% 30.05 in 10.0 mi ENE 5.8 mph - N/A   Clear
9:35 PM 64.4 °F 58.1 °F 80% 30.05 in 10.0 mi ENE 6.9 mph - N/A   Clear
9:55 PM 63.5 °F 57.4 °F 80% 30.06 in 10.0 mi ENE 5.8 mph - N/A   Clear
10:15 PM 62.6 °F 57.6 °F 84% 30.06 in 10.0 mi ENE 6.9 mph - N/A   Clear
10:35 PM 62.8 °F 57.2 °F 82% 30.06 in 10.0 mi ENE 6.9 mph - N/A   Clear
10:55 PM 61.3 °F 56.5 °F 84% 30.06 in 10.0 mi ENE 5.8 mph - N/A   Clear
11:15 PM 60.6 °F 55.8 °F 84% 30.06 in 10.0 mi ENE 5.8 mph - N/A   Clear
11:35 PM 60.4 °F 55.8 °F 85% 30.06 in 10.0 mi NE 6.9 mph - N/A   Clear